Regional Weather Roundup
Issued by NWS

Home | Current Version | Previous Version | Graphics & Text | Print | Product List | Glossary On
Versions: 1 2 3 4 5 6 7 8 9 10 11 12 13 14 15 16 17 18 19 20 21 22 23 24 25 26 27 28 29 30 31 32 33 34 35 36 37 38 39 40 41 42 43 44 45 46 47 48 49 50
000
ASUS43 KTOP 280008
RWRKS

WEATHER ROUNDUP FOR KANSAS
NATIONAL WEATHER SERVICE GOODLAND KS
700 PM CDT SAT MAY 27 2017

NOTE:  "FAIR" INDICATES FEW OR NO CLOUDS BELOW 12,000 FEET WITH NO
SIGNIFICANT WEATHER AND/OR OBSTRUCTIONS TO VISIBILITY.

KSZ001>006-013>018-027>032-041>047-280100-
NORTHWEST KANSAS

CITY           SKY/WX    TMP DP  RH WIND       PRES   REMARKS
GOODLAND       LGT RAIN  55  51  86 NW9       30.09R
6HR MIN TEMP:  55; 6HR MAX TEMP:  67; 6HR PCP:  0.02;

HAYS           CLOUDY    71  58  63 N14       29.93R
HILL CITY      PTSUNNY   70  55  59 N17       29.98R
6HR MIN TEMP:  70; 6HR MAX TEMP:  75;

RUSSELL        CLOUDY    71  58  63 N16       29.91R
6HR MIN TEMP:  70; 6HR MAX TEMP:  76;

$$

KSZ061>065-074>080-084>089-280100-
SOUTHWEST KANSAS

CITY           SKY/WX    TMP DP  RH WIND       PRES   REMARKS
DODGE CITY     MOSUNNY   73  55  53 N16G28    29.93S
6HR MIN TEMP:  73; 6HR MAX TEMP:  78;

ELKHART          N/A     69  47  45 NE14        N/A
GARDEN CITY    CLOUDY    69  52  54 N21G31    29.96S
6HR MIN TEMP:  69; 6HR MAX TEMP:  76;

GREAT BEND     CLOUDY    72  61  68 N18       29.90R
LIBERAL        PTSUNNY   73  56  54 N15       29.93R
PRATT          CLOUDY    73  56  54 N12       29.88R
6HR MIN TEMP:  73; 6HR MAX TEMP:  77;

$$

KSZ066>073-081>083-090>101-280100-
SOUTHEAST KANSAS

CITY           SKY/WX    TMP DP  RH WIND       PRES   REMARKS
CHANUTE        SUNNY     79  65  62 N15       29.75F
6HR MIN TEMP:  73; 6HR MAX TEMP:  82;

COFFEYVILLE    MOSUNNY   81  72  74 NE7       29.72R
6HR MIN TEMP:  78; 6HR MAX TEMP:  85;

HUTCHINSON     PTSUNNY   76  62  62 N13G21    29.85R
6HR MIN TEMP:  72; 6HR MAX TEMP:  82;

MEDICINE LODGE   N/A     78  59  51 N13       29.83S
NEWTON         PTSUNNY   75  61  61 N12       29.85R
PARSONS        CLOUDY    81  67  62 N8        29.74S
6HR MIN TEMP:  73; 6HR MAX TEMP:  81; 6HR PCP: TRACE;

WICHITA INTL   PTSUNNY   78  61  55 N13       29.82R
6HR MIN TEMP:  77; 6HR MAX TEMP:  85;

WICHITA JABRA  PTSUNNY   76  61  59 N13       29.82S
6HR MIN TEMP:  76; 6HR MAX TEMP:  84;

WICHITA MCCONL SUNNY     77  60  56 N16       29.82S
WINFIELD       MOSUNNY   78  62  57 N20G29    29.78S
6HR MIN TEMP:  76; 6HR MAX TEMP:  85;

$$

KSZ007>012-019>026-033>040-048>060-102>105-280100-
NORTHEAST KANSAS

CITY           SKY/WX    TMP DP  RH WIND       PRES   REMARKS
CONCORDIA      PTSUNNY   73  62  68 N7        29.89R
6HR MIN TEMP:  68; 6HR MAX TEMP:  75;

EMPORIA        MOSUNNY   77  64  64 N8        29.81F
6HR MIN TEMP:  68; 6HR MAX TEMP:  81; 6HR PCP:  0.12;

LAWRENCE       MOSUNNY   75  66  73 N8        29.81S
6HR MIN TEMP:  67; 6HR MAX TEMP:  77;

MANHATTAN      PTSUNNY   74  63  68 N8        29.84S
6HR MIN TEMP:  71; 6HR MAX TEMP:  79; 6HR PCP: TRACE;

MARYSVILLE     SUNNY     70  61  73 NE12      29.87F
OLATHE IND     MOSUNNY   72  63  73 N9        29.81S
6HR MIN TEMP:  62; 6HR MAX TEMP:  72; 6HR PCP:  0.05;

OLATHE EXE     CLOUDY    70  61  73 N7        29.81R
6HR MIN TEMP:  61; 6HR MAX TEMP:  72; 6HR PCP:  0.07;

SALINA         MOSUNNY   76  63  64 N15       29.86S
6HR MIN TEMP:  70; 6HR MAX TEMP:  79;

TOPEKA BILLARD SUNNY     76  65  68 N12       29.81F
6HR MIN TEMP:  71; 6HR MAX TEMP:  77;

TOPEKA FORBES  SUNNY     77  63  61 N10       29.81F
6HR MIN TEMP:  73; 6HR MAX TEMP:  79;

$$



USA.gov is the U.S. government's official web portal to all federal, state and local government web resources and services.